| time (UTC) | temp F | wind direction | speed MPH | gust MPH | rain 1hr in | rain 24hr in | rain mn in | humidity % | barometer mb |
| 20260904041512 | 79 | 132 | 1.0 | 5.0 | 0.00 | 0.03 | 0.03 | 96 | 1013.6 |
| 20260904040013 | 79 | 116 | 2.0 | 4.0 | 0.00 | 0.03 | 0.03 | 96 | 1013.6 |
| 20260904034527 | 79 | 126 | 3.0 | 7.0 | 0.00 | 0.03 | 0.03 | 96 | 1013.6 |
| 20260904033012 | 78 | 134 | 4.0 | 7.0 | 0.00 | 0.03 | 0.03 | 96 | 1013.4 |
| 20260904031514 | 78 | 111 | 3.0 | 6.0 | 0.00 | 0.03 | 0.03 | 96 | 1013.5 |
| 20260904030011 | 78 | 126 | 4.0 | 8.0 | 0.00 | 0.03 | 0.03 | 96 | 1013.3 |
| 20260904024511 | 79 | 117 | 5.0 | 8.0 | 0.00 | 0.03 | 0.03 | 95 | 1013.2 |
| 20260904023010 | 79 | 109 | 4.0 | 8.0 | 0.00 | 0.03 | 0.03 | 95 | 1013.4 |
| 20260904021509 | 79 | 113 | 5.0 | 9.0 | 0.00 | 0.03 | 0.03 | 95 | 1013.2 |
| 20260904020009 | 79 | 117 | 6.0 | 8.0 | 0.00 | 0.03 | 0.03 | 95 | 1013.0 |
| 20260904014509 | 79 | 112 | 3.0 | 8.0 | 0.00 | 0.03 | 0.03 | 95 | 1013.0 |
| 20260904013009 | 79 | 101 | 4.0 | 7.0 | 0.00 | 0.03 | 0.03 | 95 | 1012.8 |
| 20260904011521 | 79 | 107 | 5.0 | 8.0 | 0.00 | 0.03 | 0.03 | 94 | 1012.6 |
| 20260904010007 | 79 | 120 | 4.0 | 8.0 | 0.00 | 0.03 | 0.03 | 94 | 1012.5 |
| 20260904004506 | 79 | 108 | 4.0 | 9.0 | 0.00 | 0.03 | 0.03 | 93 | 1012.4 |
| 20260904003006 | 79 | 101 | 6.0 | 10.0 | 0.00 | 0.03 | 0.03 | 92 | 1012.4 |
| 20260904001505 | 79 | 91 | 6.0 | 11.0 | 0.00 | 0.03 | 0.03 | 92 | 1012.2 |
| 20260904000007 | 79 | 69 | 5.0 | 11.0 | 0.00 | 0.03 | 0.03 | 91 | 1012.3 |
| 20260903234505 | 80 | 104 | 9.0 | 12.0 | 0.00 | 0.03 | 0.03 | 90 | 1012.4 |
| 20260903233015 | 79 | 94 | 7.0 | 13.0 | 0.00 | 0.03 | 0.03 | 91 | 1012.6 |
| 20260903231504 | 79 | 80 | 8.0 | 11.0 | 0.00 | 0.03 | 0.03 | 90 | 1012.9 |
| 20260903230003 | 79 | 72 | 9.0 | 14.0 | 0.00 | 0.03 | 0.03 | 90 | 1012.8 |
| 20260903224504 | 80 | 99 | 12.0 | 18.0 | 0.00 | 0.03 | 0.03 | 89 | 1012.6 |
| 20260903223003 | 80 | 88 | 5.0 | 12.0 | 0.00 | 0.03 | 0.03 | 90 | 1012.7 |
| 20260903221502 | 80 | 78 | 7.0 | 12.0 | 0.00 | 0.03 | 0.03 | 90 | 1012.3 |
| 20260903220122 | 80 | 96 | 7.0 | 11.0 | 0.00 | 0.03 | 0.03 | 90 | 1012.3 |
| 20260903214600 | 79 | 103 | 7.0 | 10.0 | 0.00 | 0.03 | 0.03 | 91 | 1012.4 |
| 20260903213103 | 79 | 91 | 5.0 | 9.0 | 0.00 | 0.03 | 0.03 | 92 | 1012.7 |
| 20260903211600 | 79 | 78 | 4.0 | 10.0 | 0.00 | 0.03 | 0.03 | 93 | 1012.8 |
| 20260903210106 | 78 | 86 | 5.0 | 13.0 | 0.00 | 0.03 | 0.03 | 94 | 1012.9 |
| 20260903204556 | 77 | 135 | 9.0 | 13.0 | 0.00 | 0.03 | 0.03 | 93 | 1013.6 |
| 20260903203127 | 77 | 91 | 9.0 | 23.0 | 0.01 | 0.03 | 0.03 | 93 | 1013.6 |
| 20260903201553 | 77 | 109 | 17.0 | 25.0 | 0.01 | 0.03 | 0.03 | 93 | 1013.5 |
| 20260903200049 | 78 | 99 | 14.0 | 20.0 | 0.03 | 0.03 | 0.03 | 89 | 1013.9 |
| 20260903194555 | 78 | 97 | 10.0 | 18.0 | 0.03 | 0.03 | 0.03 | 90 | 1013.3 |
| 20260903193046 | 80 | 99 | 14.0 | 21.0 | 0.02 | 0.02 | 0.02 | 86 | 1013.4 |
| 20260903191543 | 84 | 123 | 13.0 | 19.0 | 0.02 | 0.02 | 0.02 | 77 | 1013.1 |
| 20260903190042 | 84 | 128 | 7.0 | 12.0 | 0.00 | 0.00 | 0.00 | 74 | 1013.1 |
| 20260903184541 | 91 | 174 | 6.0 | 11.0 | 0.00 | 0.00 | 0.00 | 66 | 1013.1 |
| 20260903183043 | 92 | 153 | 2.0 | 11.0 | 0.00 | 0.00 | 0.00 | 67 | 1013.2 |
| 20260903181535 | 91 | 136 | 3.0 | 7.0 | 0.00 | 0.00 | 0.00 | 68 | 1013.5 |
| 20260903180030 | 91 | 146 | 6.0 | 12.0 | 0.00 | 0.00 | 0.00 | 70 | 1013.7 |
| 20260903174529 | 90 | 175 | 5.0 | 9.0 | 0.00 | 0.00 | 0.00 | 74 | 1013.8 |
| 20260903173030 | 90 | 201 | 4.0 | 11.0 | 0.00 | 0.00 | 0.00 | 72 | 1013.9 |
| 20260903171525 | 89 | 244 | 4.0 | 9.0 | 0.00 | 0.00 | 0.00 | 76 | 1014.3 |
| 20260903170026 | 89 | 169 | 6.0 | 10.0 | 0.00 | 0.00 | 0.00 | 76 | 1014.6 |
| 20260903164524 | 89 | 198 | 8.0 | 15.0 | 0.00 | 0.00 | 0.00 | 75 | 1014.8 |
| 20260903163022 | 89 | 202 | 10.0 | 15.0 | 0.00 | 0.00 | 0.00 | 76 | 1014.7 |
| 20260903161520 | 88 | 173 | 9.0 | 14.0 | 0.00 | 0.00 | 0.00 | 78 | 1014.6 |
| 20260903160029 | 87 | 214 | 8.0 | 14.0 | 0.00 | 0.00 | 0.00 | 81 | 1014.6 |
| 20260903154517 | 87 | 250 | 11.0 | 18.0 | 0.00 | 0.00 | 0.00 | 82 | 1014.6 |
| 20260903153012 | 86 | 225 | 10.0 | 16.0 | 0.00 | 0.00 | 0.00 | 85 | 1014.6 |
| 20260903151509 | 85 | 202 | 11.0 | 17.0 | 0.00 | 0.00 | 0.00 | 86 | 1014.7 |
| 20260903150012 | 85 | 227 | 11.0 | 18.0 | 0.00 | 0.00 | 0.00 | 86 | 1014.7 |
| 20260903144518 | 84 | 218 | 10.0 | 19.0 | 0.00 | 0.00 | 0.00 | 89 | 1014.6 |
| 20260903143003 | 83 | 182 | 8.0 | 18.0 | 0.00 | 0.00 | 0.00 | 91 | 1014.8 |
| 20260903141601 | 83 | 196 | 7.0 | 14.0 | 0.00 | 0.00 | 0.00 | 92 | 1014.9 |
| 20260903140059 | 82 | 178 | 4.0 | 9.0 | 0.00 | 0.00 | 0.00 | 94 | 1014.9 |
| 20260903134559 | 81 | 173 | 2.0 | 5.0 | 0.00 | 0.00 | 0.00 | 95 | 1014.8 |
| 20260903133101 | 81 | 159 | 3.0 | 6.0 | 0.00 | 0.00 | 0.00 | 95 | 1014.6 |
| 20260903131556 | 80 | 167 | 1.0 | 6.0 | 0.00 | 0.00 | 0.00 | 96 | 1014.5 |
| 20260903130055 | 80 | 168 | 2.0 | 6.0 | 0.00 | 0.00 | 0.00 | 96 | 1014.4 |
| 20260903124606 | 80 | 174 | 1.0 | 4.0 | 0.00 | 0.00 | 0.00 | 96 | 1014.3 |
| 20260903123055 | 80 | 169 | 1.0 | 4.0 | 0.00 | 0.00 | 0.00 | 96 | 1014.1 |
| 20260903121600 | 80 | 158 | 2.0 | 7.0 | 0.00 | 0.00 | 0.00 | 96 | 1014.1 |
| 20260903120101 | 79 | 156 | 3.0 | 8.0 | 0.00 | 0.00 | 0.00 | 96 | 1014.0 |
| 20260903114552 | 79 | 145 | 3.0 | 8.0 | 0.00 | 0.00 | 0.00 | 96 | 1014.0 |
| 20260903113130 | 79 | 143 | 2.0 | 5.0 | 0.00 | 0.00 | 0.00 | 96 | 1014.0 |
| 20260903111552 | 79 | 144 | 2.0 | 4.0 | 0.00 | 0.00 | 0.00 | 96 | 1014.0 |
| 20260903110056 | 80 | 144 | 1.0 | 3.0 | 0.00 | 0.00 | 0.00 | 96 | 1014.1 |
| 20260903104601 | 80 | 160 | 1.0 | 3.0 | 0.00 | 0.00 | 0.00 | 96 | 1014.0 |
| 20260903103049 | 80 | 153 | 1.0 | 3.0 | 0.00 | 0.00 | 0.00 | 96 | 1014.0 |
| 20260903101550 | 79 | 167 | 0.0 | 3.0 | 0.00 | 0.00 | 0.00 | 96 | 1013.8 |
| 20260903100048 | 79 | 179 | 1.0 | 4.0 | 0.00 | 0.00 | 0.00 | 96 | 1013.6 |
| 20260903094552 | 79 | 169 | 0.0 | 3.0 | 0.00 | 0.00 | 0.00 | 96 | 1013.6 |
| 20260903093046 | 79 | 175 | 2.0 | 5.0 | 0.00 | 0.00 | 0.00 | 96 | 1013.6 |
| 20260903091550 | 80 | 169 | 1.0 | 5.0 | 0.00 | 0.00 | 0.00 | 96 | 1013.7 |
| 20260903090047 | 80 | 170 | 2.0 | 6.0 | 0.00 | 0.00 | 0.00 | 96 | 1013.6 |
| 20260903084543 | 80 | 163 | 3.0 | 5.0 | 0.00 | 0.00 | 0.00 | 96 | 1013.8 |
| 20260903083042 | 80 | 161 | 2.0 | 5.0 | 0.00 | 0.00 | 0.00 | 96 | 1013.9 |
| 20260903081541 | 80 | 150 | 2.0 | 6.0 | 0.00 | 0.00 | 0.00 | 95 | 1013.8 |
| 20260903080039 | 80 | 134 | 5.0 | 9.0 | 0.00 | 0.00 | 0.00 | 95 | 1013.7 |
| 20260903074541 | 80 | 148 | 4.0 | 8.0 | 0.00 | 0.00 | 0.00 | 95 | 1013.7 |
| 20260903073037 | 80 | 136 | 4.0 | 9.0 | 0.00 | 0.00 | 0.00 | 94 | 1013.7 |
| 20260903071545 | 80 | 147 | 5.0 | 9.0 | 0.00 | 0.00 | 0.00 | 94 | 1013.7 |
| 20260903070034 | 81 | 109 | 4.0 | 7.0 | 0.00 | 0.00 | 0.00 | 94 | 1014.1 |
| 20260903064532 | 81 | 129 | 3.0 | 7.0 | 0.00 | 0.00 | 0.00 | 93 | 1014.1 |
| 20260903063031 | 81 | 139 | 5.0 | 9.0 | 0.00 | 0.00 | 0.00 | 93 | 1014.0 |
| 20260903061528 | 81 | 121 | 4.0 | 7.0 | 0.00 | 0.00 | 0.00 | 92 | 1014.1 |
| 20260903060026 | 81 | 126 | 3.0 | 6.0 | 0.00 | 0.00 | 0.00 | 91 | 1014.4 |
| 20260903054524 | 81 | 88 | 4.0 | 7.0 | 0.00 | 0.00 | 0.00 | 91 | 1014.6 |
| 20260903053023 | 82 | 84 | 3.0 | 6.0 | 0.00 | 0.00 | 0.00 | 90 | 1014.7 |
| 20260903051539 | 82 | 84 | 3.0 | 5.0 | 0.00 | 0.00 | 0.00 | 90 | 1014.8 |
| 20260903050016 | 82 | 82 | 3.0 | 4.0 | 0.00 | 0.00 | 0.00 | 89 | 1014.9 |
| 20260903044519 | 82 | 337 | 1.0 | 3.0 | 0.00 | 0.00 | 0.00 | 89 | 1015.5 |
| 20260903043035 | 82 | 328 | 0.0 | 4.0 | 0.00 | 0.00 | 0.00 | 89 | 1015.4 |